Regional Weather Roundup
Issued by NWS

Home | Current Version | Previous Version | Graphics & Text | Print | Product List | Glossary On
Versions: 1 2 3 4 5 6 7 8 9 10 11 12 13 14 15 16 17 18 19 20 21 22 23 24 25 26 27 28 29 30 31 32 33 34 35 36 37 38 39 40 41 42 43 44 45 46 47 48 49 50
000
ASUS45 KCYS 010810
RWRWY

WYOMING REGIONAL WEATHER ROUNDUP
NATIONAL WEATHER SERVICE CHEYENNE WY
200 AM MDT MON SEP 01 2014

NOTE:  "FAIR" INDICATES FEW OR NO CLOUDS BELOW 12,000 FEET
WITH NO SIGNIFICANT WEATHER AND/OR OBSTRUCTIONS TO VISIBILITY.

WYZ001-010900-
YELLOWSTONE NATIONAL PARK

CITY           SKY/WX    TMP DP  RH WIND       PRES   REMARKS
LK YELLOWSTONE   N/A     36  35  96 CALM      30.15S
W YELLOWSTONE  NOT AVBL

$$
WYZ002>013-054>058-071-098>099-010900-
NORTHERN WYOMING

CITY           SKY/WX    TMP DP  RH WIND       PRES   REMARKS
JACKSON        CLOUDY    43  41  93 CALM      30.09F
CODY             N/A    N/A N/A N/A MISG        N/A
GREYBULL       MOCLDY    54  50  86 CALM      29.98R
WORLAND        MOCLDY    50  46  86 S5        29.98S
SHERIDAN       CLOUDY    51  45  79 NW14      29.96R
BUFFALO        PTCLDY    50  41  71 W6        29.99S
GILLETTE       MOCLDY    50  44  80 CALM      29.95F
HULETT         FAIR      48  45  87 MISG      29.95
NEWCASTLE      FAIR      46  45  93 N5        29.97

$$
WYZ014>020-022>026-101>103-010900-
CENTRAL WYOMING

CITY           SKY/WX    TMP DP  RH WIND       PRES   REMARKS
BIG PINEY      CLEAR     36  33  89 N6        30.14S WCI  31
PINEDALE       SUNNY     32  32 100 NW5       30.14S WCI  27
DUBOIS         FAIR      39  32  75 W10       30.10S WCI  32
LANDER         PTCLDY    50  37  61 SW6       30.03F
RIVERTON       PTCLDY    47  40  76 CALM      30.04F
CASPER         PTCLDY    46  43  89 W6        30.03R
DOUGLAS        CLEAR     48  45  89 W3        30.02S

$$
WYZ021-027>030-104>119-010900-
SOUTHERN WYOMING

CITY           SKY/WX    TMP DP  RH WIND       PRES   REMARKS
EVANSTON       PTCLDY    47  30  51 S6        30.14F
KEMMERER       SUNNY     39  34  81 N3        30.15S
FORT BRIDGER   FAIR      48  31  51 W8        30.16F
ROCK SPRINGS   CLEAR     45  33  63 S6        30.13S
DIXON          FAIR      45  41  87 CALM      30.16S
RAWLINS        CLEAR     45  36  70 W3        30.11S
SARATOGA       FAIR      45  36  70 CALM      30.14S
LARAMIE        PTCLDY    44  36  73 W9        30.12S
CHEYENNE       CLEAR     45  41  86 SW6       30.07S
TORRINGTON     CLEAR     51  48  89 N3        29.98R
PINE BLUFFS    FAIR      43  43 100 W3        30.04S

$$


USA.gov is the U.S. government's official web portal to all federal, state and local government web resources and services.